カタログに戻る

PEGASUS DEB

運用中PO
NORAD 39306·DEBRIS·🇺🇸 United States

打ち上げ May 19, 1994 から Vandenberg Space Force Base

Loading…

次のパス (今後24時間)

TLE

古いSource: Space-Track

元期: May 14, 2026, 08:45 UTC

1 39306U 94029AER 26134.36492376  .00077458  00000-0  38663-2 0  9990
2 39306  81.7345 273.2335 0104795 181.9463 178.1374 15.12413532103804

AllMySatでPEGASUS DEBをリアルタイム追跡

Download on the App Store